#timestamp,LO_Frequency,Hit,StdDev 
1455440415.3,286046999.6,N
1455440435.2,286046999.5,N
1455440455.9,286046997.9,N
1455440475.7,286046996.1,N
1455440495.6,286046994.9,N
1455440515.4,286046995.9,N
1455440535.2,286046995.0,N
1455440555.1,286046997.0,N
1455440556.0,286046997.0,N
1455440575.8,286046997.1,N
1455440595.6,286046996.3,N
1455440615.5,286046998.4,N
1455440635.3,286046997.1,N
1455440655.1,286046999.5,N
1455440675.8,286046999.5,N
1455440695.7,286046999.3,N
1455440715.5,286046999.4,N
1455440735.3,286047000.1,N
1455440755.2,286047003.8,N
1455440775.9,286047001.8,N
1455440795.7,286047001.6,N
1455440815.6,286047001.9,N
1455440835.4,286047001.6,N
1455440855.2,286047002.9,N
1455440875.1,286047004.9,N
1455440876.0,286047004.9,N
1455440895.8,286047005.0,N
1455440915.6,286047005.9,N
1455440935.5,286047001.3,N
1455440955.3,286047002.2,N
1455440975.1,286047000.7,N
1455440995.8,286046998.1,N
1455441015.7,286046999.4,N
1455441035.5,286046996.7,N
1455441055.3,286046997.5,N
1455441075.2,286046997.2,N
1455441095.9,286046995.6,N
1455441115.7,286046992.6,N
1455441135.6,286046991.1,N
1455441155.4,286046989.5,Y
1455441175.2,286046989.5,P
1455441195.1,286046987.6,N
1455441196.0,286046987.6,N
1455441215.8,286046988.9,N
1455441235.6,286046991.2,N
1455441255.5,286046990.7,N
1455441275.3,286046990.4,N
1455441295.1,286046992.0,N
1455441315.9,286046994.5,N
1455441335.7,286046992.3,N
1455441355.5,286046988.5,Y
1455441375.4,286047000.8,P
1455441395.2,286046998.4,N
1455441415.0,286046998.4,N
1455441415.9,286046998.4,N
1455441435.8,286047000.7,N
1455441455.6,286046997.2,N
1455441475.4,286046997.2,N
1455441495.2,286046998.5,N
1455441515.1,286046998.6,N
1455441516.0,286046998.6,N
1455441535.8,286046995.2,N
1455441555.6,286046994.9,N
1455441575.5,286046996.8,N
1455441595.3,286046995.4,N
1455441615.1,286046996.2,N
1455441635.9,286046993.3,N
1455441655.7,286046996.4,N
1455441675.5,286046995.2,N
1455441695.4,286046997.0,N
1455441715.2,286046997.2,N
1455441735.0,286046995.3,N
1455441735.9,286046995.3,N
1455441755.8,286046994.8,N
1455441775.6,286046995.1,N
1455441795.4,286046999.4,N
1455441815.2,286046996.8,N
1455441835.1,286046995.3,N
1455441836.0,286046995.3,N
1455441855.8,286046993.9,N
1455441875.7,286046992.0,Y
1455441895.5,286046999.0,P
1455441915.3,286046997.4,N
1455441935.1,286046997.8,N
1455441955.9,286046997.0,Y
1455441975.7,286047001.2,P
1455441995.5,286046999.2,N
1455442015.4,286046997.8,N
1455442035.2,286046995.1,Y
1455442055.1,286046997.5,P
1455442056.0,286046997.5,P
1455442075.8,286046995.9,P
1455442095.6,286046995.4,Y
1455442115.5,286046999.3,P
1455442135.3,286046999.6,N
1455442155.1,286046999.0,N
1455442175.9,286046998.5,N
1455442195.7,286046998.5,N
1455442215.5,286046995.1,Y
1455442235.4,286046997.4,P
1455442255.2,286046998.0,P
1455442275.0,286046995.4,P
1455442275.9,286046995.4,Y
1455442295.8,286047002.3,P
1455442315.6,286046999.8,N
1455442335.4,286047000.2,N
1455442355.3,286047002.1,N
1455442375.1,286047001.0,N
1455442376.0,286047001.0,N
1455442395.8,286047002.8,N
1455442415.6,286047002.8,N
1455442435.5,286047000.3,N
1455442455.3,286047001.2,N
1455442475.1,286047000.4,N
1455442495.9,286047001.1,N
1455442515.7,286047003.0,N
1455442535.5,286047003.1,N
1455442555.4,286047000.0,N
1455442575.2,286046998.1,N
1455442595.0,286047003.9,N
1455442595.9,286047003.9,N
1455442615.8,286046999.8,N
1455442635.6,286047002.8,N
1455442655.4,286047002.6,N
1455442675.3,286047005.8,Y
1455442695.1,286046999.9,P
1455442696.0,286046999.9,N
1455442715.8,286046999.2,N
1455442735.7,286046995.8,Y
1455442755.5,286046995.7,P
1455442775.3,286046997.5,N
1455442795.2,286046997.8,N
1455442815.9,286046995.5,N
1455442835.7,286046998.0,N
1455442855.6,286046997.3,N
1455442875.4,286046998.4,N
1455442895.2,286046996.5,N
1455442915.1,286046998.9,N
1455442916.0,286046998.9,N
1455442935.8,286047002.2,N
1455442955.6,286047004.3,N
1455442975.5,286047001.7,N
1455442995.3,286047002.8,N
1455443015.1,286046998.7,N
1455443035.8,286047001.2,N
1455443055.7,286046998.2,N
1455443075.5,286047002.8,N
1455443095.3,286047001.1,N
1455443115.2,286046996.4,N
1455443135.9,286046995.0,N
1455443155.7,286046996.8,N
1455443175.6,286046998.7,N
1455443195.4,286047004.4,N
1455443215.2,286047000.1,N
1455443235.1,286046998.1,N
1455443236.0,286046998.1,N
1455443255.8,286046997.0,N
1455443275.6,286046997.8,N
1455443295.4,286046994.9,N
1455443315.3,286046995.4,N
1455443335.1,286046993.7,N
1455443355.8,286046991.9,N
1455443375.7,286046992.6,N
1455443395.5,286046992.4,N
1455443415.3,286046993.0,N
1455443435.2,286046990.8,N
1455443455.9,286046993.9,N
1455443475.7,286046991.9,N
1455443495.6,286046990.1,N
1455443515.4,286046988.7,N
1455443535.2,286046989.3,N
1455443555.1,286046988.7,N
1455443556.0,286046988.7,N
1455443575.8,286046991.4,N
1455443595.6,286046990.5,N
1455443615.5,286046993.6,N
1455443635.3,286046995.3,N
1455443655.1,286046995.1,N
1455443675.8,286046993.5,N
1455443695.7,286046995.3,N
1455443715.5,286046995.9,N
1455443735.3,286046997.5,N
1455443755.2,286046996.2,N
1455443775.0,286046999.3,N
1455443775.9,286046999.3,N
1455443795.7,286047001.0,N
1455443815.6,286047001.6,N
1455443835.4,286047004.3,N
1455443855.2,286047005.5,N
1455443875.1,286047007.6,N
1455443876.0,286047007.6,N
1455443895.8,286047004.6,N
1455443915.6,286047005.0,N
1455443935.5,286047003.0,N
1455443955.3,286047007.6,N
1455443975.1,286047004.9,N
1455443995.9,286047005.0,N
1455440415.6,286047006.6,P
1455440435.4,286047007.3,P
1455440455.2,286047007.3,P
1455440475.1,286047006.3,Y
1455440476.0,286047006.3,P
1455440495.8,286047000.4,N
1455440515.7,286047000.4,N
1455440535.5,286047003.7,N
1455440555.3,286047002.0,N
1455440575.1,286047000.6,N
1455440595.9,286047001.5,N
1455440615.7,286047000.9,N
1455440635.5,286047000.3,N
1455440655.4,286046999.1,N
1455440675.2,286046996.5,N
1455440695.0,286046995.3,N
1455440695.9,286046995.3,N
1455440715.8,286046995.4,N
1455440735.6,286046995.9,N
1455440755.4,286046997.6,N
1455440775.3,286047001.1,N
1455440795.1,286046993.7,N
1455440796.0,286046993.7,N
1455440815.8,286046994.0,N
1455440835.7,286046997.1,N
1455440855.5,286046998.8,N
1455440875.3,286046993.7,N
1455440895.2,286046995.0,N
1455440915.9,286046995.2,N
1455440935.7,286046993.9,N
1455440955.5,286046990.9,N
1455440975.4,286046990.3,N
1455440995.2,286046990.9,N
1455441015.0,286046992.4,N
1455441015.9,286046992.4,N
1455441035.8,286046992.4,N
1455441055.6,286046989.5,N
1455441075.4,286046990.1,N
1455441095.3,286046991.5,N
1455441115.1,286046984.0,Y
1455441135.8,286046988.8,P
1455441155.7,286046989.0,P
1455441175.5,286046989.2,P
1455441195.3,286046989.6,Y
1455441215.2,286046999.3,P
1455441235.9,286046995.2,N
1455441255.7,286046999.6,N
1455441275.6,286046998.0,N
1455441295.4,286046993.8,N
1455441315.2,286046994.6,N
1455441335.1,286046990.7,Y
1455441336.0,286046990.7,P
1455441355.8,286046998.0,N
1455441375.6,286046998.7,N
1455441395.5,286046995.7,N
1455441415.3,286046992.5,N
1455441435.1,286046990.5,Y
1455441455.9,286046995.2,P
1455441475.7,286046996.0,P
1455441495.5,286046996.3,P
1455441515.4,286046996.4,Y
1455441535.2,286046999.5,P
1455441555.0,286046995.7,N
1455441555.9,286046995.7,N
1455441575.8,286046993.8,Y
1455441595.6,286046999.6,P
1455441615.4,286046996.9,N
1455441635.3,286046998.3,N
1455441655.1,286047000.8,N
1455441675.8,286046999.4,N
1455441695.7,286047000.7,N
1455441715.5,286046996.6,N
1455441735.3,286046996.2,N
1455441755.2,286046998.0,N
1455441775.9,286047000.8,N
1455441795.7,286047001.2,N
1455441815.5,286047002.5,N
1455441835.4,286046998.6,N
1455441855.2,286047001.1,N
1455441875.0,286046998.6,N
1455441875.9,286046998.6,N
1455441895.8,286046998.4,N
1455441915.6,286046999.3,N
1455441935.4,286046996.7,N
1455441955.3,286046994.0,Y
1455441975.1,286046997.2,P
1455441995.8,286046994.2,P
1455442015.7,286046994.8,N
1455442035.5,286046995.5,N
1455442055.3,286046997.3,N
1455442075.2,286046995.7,N
1455442095.9,286046995.8,N
1455442115.7,286046995.7,Y
1455442135.6,286047000.3,P
1455442155.4,286046999.1,N
1455442175.2,286046999.2,N
1455442195.1,286046998.9,N
1455442196.0,286046998.9,N
1455442215.8,286047001.7,N
1455442235.6,286047001.8,N
1455442255.5,286046998.7,N
1455442275.3,286046995.3,N
1455442295.1,286046999.6,N
1455442315.9,286047001.0,N
1455442335.7,286046999.7,N
1455442355.5,286046998.5,N
1455442375.3,286047000.3,N
1455442395.2,286046998.7,N
1455442415.0,286047000.6,N
1455442415.9,286047000.6,N
1455442435.7,286046998.7,N
1455442455.6,286047000.8,N
1455442475.4,286047001.2,N
1455442495.2,286046998.5,N
1455442515.1,286046998.5,N
1455442516.0,286046998.5,N
1455442535.8,286047000.9,N
1455442555.6,286047002.7,N
1455442575.5,286046999.4,N
1455442595.3,286046996.8,N
1455442615.1,286046995.7,N
1455442635.9,286046995.0,N
1455442655.7,286047001.2,N
1455442675.5,286046997.7,N
1455442695.3,286046995.7,N
1455442715.2,286046996.8,N
1455442735.0,286046996.8,N
1455442735.9,286046996.8,N
1455442755.7,286046997.4,N
1455442775.6,286046996.4,N
1455442795.4,286046995.9,N
1455442815.2,286046999.0,N
1455442835.1,286046998.1,N
1455442836.0,286046998.1,N
1455442855.8,286046997.9,N
1455442875.6,286046996.1,N
1455442895.5,286046997.7,N
1455442915.3,286046999.5,N
1455442935.1,286046996.6,N
1455442955.9,286046993.5,Y
1455442975.7,286046998.1,P
1455442995.5,286047000.7,P
1455443015.4,286046997.0,N
1455443035.2,286046997.9,N
1455443055.0,286046998.0,N
1455443055.9,286046998.0,N
1455443075.8,286046995.3,Y
1455443095.6,286046998.8,P
1455443115.4,286046998.6,P
1455443135.3,286046999.0,P
1455443155.1,286046999.1,Y
1455443175.8,286047001.1,P
1455443195.7,286046999.3,N
1455443215.5,286046997.9,N
1455443235.3,286046995.4,Y
1455443255.2,286046996.4,P
1455443275.9,286046993.1,P
1455443295.7,286046990.8,P
1455443315.6,286046991.8,N
1455443335.4,286046994.0,N
1455443355.2,286046992.2,N
1455443375.1,286046991.4,Y
1455443376.0,286046991.4,P
1455443395.8,286046996.6,N
1455443415.6,286046996.6,N
1455443435.5,286046999.1,N
1455443455.3,286046998.3,N
1455443475.1,286046998.2,N
1455443495.9,286046998.3,N
1455443515.7,286046998.5,N
1455443535.5,286046999.1,N
1455443555.3,286046997.9,N
1455443575.2,286046996.6,N
1455443595.0,286046997.7,N
1455443595.9,286046997.7,N
1455443615.7,286046997.9,N
1455443635.6,286046997.3,N
1455443655.4,286047000.0,N
1455443675.2,286047001.0,N
1455443695.1,286047000.6,N
1455443696.0,286047000.6,N
1455443715.8,286046999.9,N
1455443735.6,286046999.8,N
1455443755.5,286047000.0,N
1455443775.3,286047005.8,N
1455443795.1,286047006.5,N
1455443815.9,286047006.9,N
1455443835.7,286047010.2,Y
1455443855.5,286047013.6,P
1455443875.4,286047013.8,N
1455443895.2,286047014.7,N
1455443915.0,286047018.5,N
1455443915.9,286047018.5,N
1455443935.7,286047017.9,N
1455443955.6,286047021.9,Y
1455443975.4,286047006.3,P
1455443995.2,286047010.5,N
